NWS1950 LYBE-UUEE

Flight info

Callsign NWS1950
Flight time 2h 34m
Altitude 35000
Route TISAK4Z/12L TISAK M173 PARAK/N0451F330 DCT KEKED DCT PODAN/N0449F350 DCT BIGLU/K0832F350 T406 RAVOK T52 PINUG L999 AGLAN M864 DIPOP DIPOP3E
Aircraft A321/M-SDFGHIRWY/LB1

Departure

Time 2026-05-04 14:30
Airport Belgrade Nikola Tesla Airport (LYBE)

Arrival

Time 2026-05-04 17:04
Airport Sheremetyevo International Airport (UUEE)
Time Latitude Longitude Altitude Speed Heading
2026-05-04 14:12 44.81971 20.29320 312 ft 0 kts 302°
2026-05-04 14:22 44.81970 20.29324 312 ft 3 kts 302°
2026-05-04 14:22 44.81957 20.29352 310 ft 3 kts 303°
2026-05-04 14:22 44.81940 20.29374 310 ft 4 kts 352°
2026-05-04 14:22 44.81917 20.29366 310 ft 4 kts 30°
2026-05-04 14:23 44.81908 20.29359 312 ft 0 kts 32°
2026-05-04 14:26 44.81909 20.29360 312 ft 2 kts 32°
2026-05-04 14:26 44.81950 20.29396 311 ft 12 kts 32°
2026-05-04 14:26 44.82049 20.29482 312 ft 21 kts 32°
2026-05-04 14:27 44.82133 20.29525 313 ft 11 kts 332°
2026-05-04 14:27 44.82192 20.29411 312 ft 18 kts 299°
2026-05-04 14:27 44.82274 20.29233 313 ft 25 kts 301°
2026-05-04 14:27 44.82373 20.29006 312 ft 29 kts 302°
2026-05-04 14:28 44.82487 20.28856 312 ft 23 kts
2026-05-04 14:28 44.82554 20.28896 312 ft 0 kts 44°
2026-05-04 14:29 44.82604 20.28996 312 ft 14 kts 70°
2026-05-04 14:29 44.82533 20.29360 312 ft 26 kts 122°
2026-05-04 14:30 44.82381 20.29701 313 ft 70 kts 123°
2026-05-04 14:30 44.82005 20.30553 311 ft 131 kts 122°
2026-05-04 14:30 44.80910 20.33106 1178 ft 155 kts 121°
2026-05-04 14:31 44.80556 20.33985 1597 ft 156 kts 123°
2026-05-04 14:31 44.79378 20.36557 2690 ft 156 kts 124°
2026-05-04 14:32 44.78210 20.39167 3473 ft 160 kts 124°
2026-05-04 14:32 44.77600 20.40537 3773 ft 171 kts 124°
2026-05-04 14:32 44.76940 20.42010 4099 ft 186 kts 124°
2026-05-04 14:32 44.76218 20.43615 4443 ft 201 kts 123°
2026-05-04 14:33 44.75449 20.45331 4809 ft 215 kts 123°
2026-05-04 14:33 44.74623 20.47168 5147 ft 230 kts 123°
2026-05-04 14:33 44.73751 20.49109 5558 ft 243 kts 123°
2026-05-04 14:33 44.72839 20.51143 5937 ft 247 kts 123°
2026-05-04 14:34 44.72057 20.53305 6470 ft 251 kts 106°
2026-05-04 14:34 44.72008 20.55748 7087 ft 254 kts 75°
2026-05-04 14:34 44.72862 20.57926 7587 ft 264 kts 44°
2026-05-04 14:34 44.74476 20.59229 7997 ft 276 kts 17°
2026-05-04 14:35 44.76366 20.59843 8625 ft 280 kts 13°
2026-05-04 14:35 44.78279 20.60411 9325 ft 281 kts 13°
2026-05-04 14:35 44.80192 20.61022 10053 ft 282 kts 15°
2026-05-04 14:35 44.82109 20.61672 10679 ft 283 kts 15°
2026-05-04 14:36 44.84027 20.62340 11292 ft 285 kts 15°
2026-05-04 14:36 44.85961 20.63024 11895 ft 287 kts 15°
2026-05-04 14:36 44.87916 20.63650 12487 ft 290 kts
2026-05-04 14:36 44.89933 20.63504 13066 ft 296 kts 346°
2026-05-04 14:37 44.91829 20.62317 13658 ft 300 kts 333°
2026-05-04 14:37 44.93626 20.60854 14212 ft 302 kts 332°
2026-05-04 14:37 44.95457 20.59362 14740 ft 305 kts 332°
2026-05-04 14:37 44.97309 20.57876 15271 ft 307 kts 333°
2026-05-04 14:38 44.99178 20.56395 15793 ft 309 kts 333°
2026-05-04 14:38 45.01067 20.54912 16315 ft 311 kts 333°
2026-05-04 14:38 45.02963 20.53428 16830 ft 313 kts 333°
2026-05-04 14:38 45.04881 20.51932 17346 ft 315 kts 334°
2026-05-04 14:39 45.06815 20.50423 17862 ft 317 kts 334°
2026-05-04 14:39 45.08754 20.48912 18353 ft 320 kts 334°
2026-05-04 14:39 45.10688 20.47415 18805 ft 322 kts 334°
2026-05-04 14:40 45.14639 20.44362 19675 ft 325 kts 334°
2026-05-04 14:40 45.16625 20.42812 20102 ft 327 kts 334°
2026-05-04 14:40 45.18627 20.41256 20517 ft 329 kts 333°
2026-05-04 14:40 45.20641 20.39691 20935 ft 331 kts 333°
2026-05-04 14:41 45.22666 20.38112 21363 ft 333 kts 333°
2026-05-04 14:41 45.24704 20.36515 21780 ft 335 kts 333°
2026-05-04 14:41 45.28798 20.33292 22607 ft 338 kts 333°
2026-05-04 14:42 45.32931 20.30034 23418 ft 342 kts 333°
2026-05-04 14:42 45.34993 20.28413 23786 ft 343 kts 333°
2026-05-04 14:42 45.37093 20.26764 24106 ft 345 kts 333°
2026-05-04 14:43 45.39203 20.25108 24431 ft 346 kts 333°
2026-05-04 14:43 45.41324 20.23477 24753 ft 347 kts 336°
2026-05-04 14:43 45.43608 20.22413 25019 ft 347 kts 351°
2026-05-04 14:43 45.46020 20.21930 25179 ft 353 kts 354°
2026-05-04 14:44 45.48495 20.21545 25274 ft 361 kts 354°
2026-05-04 14:44 45.50993 20.21145 25374 ft 369 kts 354°
2026-05-04 14:44 45.53572 20.20716 25478 ft 377 kts 354°
2026-05-04 14:44 45.56206 20.20263 25585 ft 385 kts 353°
2026-05-04 14:45 45.58895 20.19790 25673 ft 393 kts 353°
2026-05-04 14:45 45.61634 20.19304 25768 ft 400 kts 353°
2026-05-04 14:45 45.64426 20.18808 25864 ft 408 kts 353°
2026-05-04 14:45 45.67277 20.18303 25961 ft 415 kts 353°
2026-05-04 14:46 45.70169 20.17785 26048 ft 421 kts 353°
2026-05-04 14:46 45.73103 20.17251 26144 ft 428 kts 353°
2026-05-04 14:46 45.76074 20.16711 26247 ft 434 kts 353°
2026-05-04 14:46 45.79082 20.16172 26434 ft 437 kts 353°
2026-05-04 14:47 45.82108 20.15630 26661 ft 439 kts 353°
2026-05-04 14:47 45.85149 20.15083 26919 ft 441 kts 353°
2026-05-04 14:47 45.88159 20.14538 27159 ft 442 kts 353°
2026-05-04 14:47 45.91217 20.13983 27397 ft 444 kts 353°
2026-05-04 14:48 45.94284 20.13428 27615 ft 445 kts 353°
2026-05-04 14:48 45.97364 20.12875 27834 ft 447 kts 353°
2026-05-04 14:48 46.00452 20.12319 28060 ft 448 kts 353°
2026-05-04 14:48 46.03544 20.11759 28332 ft 448 kts 353°
2026-05-04 14:49 46.06629 20.11198 28643 ft 447 kts 353°
2026-05-04 14:49 46.09719 20.10640 28962 ft 446 kts 353°
2026-05-04 14:49 46.12800 20.10093 29273 ft 445 kts 354°
2026-05-04 14:49 46.15887 20.09962 29557 ft 444 kts
2026-05-04 14:50 46.18931 20.10663 29809 ft 444 kts 14°
2026-05-04 14:50 46.21881 20.12002 30109 ft 443 kts 18°
2026-05-04 14:50 46.24763 20.13438 30347 ft 443 kts 18°
2026-05-04 14:50 46.27672 20.14891 30584 ft 442 kts 18°
2026-05-04 14:51 46.30585 20.16333 30818 ft 441 kts 18°
2026-05-04 14:51 46.33491 20.17746 31060 ft 440 kts 17°
2026-05-04 14:51 46.36395 20.19154 31298 ft 439 kts 17°
2026-05-04 14:51 46.39283 20.20555 31538 ft 438 kts 17°
2026-05-04 14:52 46.42175 20.21963 31770 ft 437 kts 17°
2026-05-04 14:52 46.45054 20.23371 31993 ft 436 kts 17°
2026-05-04 14:52 46.47930 20.24787 32225 ft 435 kts 17°
2026-05-04 14:52 46.50770 20.26190 32445 ft 434 kts 18°
2026-05-04 14:53 46.53628 20.27606 32667 ft 433 kts 17°
2026-05-04 14:53 46.56483 20.29017 32875 ft 433 kts 17°
2026-05-04 14:53 46.59327 20.30425 33086 ft 432 kts 17°
2026-05-04 14:53 46.62174 20.31830 33294 ft 431 kts 17°
2026-05-04 14:54 46.65011 20.33231 33490 ft 430 kts 17°
2026-05-04 14:54 46.67845 20.34626 33689 ft 429 kts 17°
2026-05-04 14:54 46.70675 20.36016 33882 ft 428 kts 17°
2026-05-04 14:54 46.73501 20.37418 34066 ft 428 kts 17°
2026-05-04 14:55 46.76317 20.38815 34228 ft 427 kts 17°
2026-05-04 14:55 46.79137 20.40207 34359 ft 427 kts 17°
2026-05-04 14:55 46.81914 20.41580 34473 ft 427 kts 17°
2026-05-04 14:55 46.84735 20.42979 34587 ft 428 kts 17°
2026-05-04 14:56 46.87554 20.44377 34701 ft 428 kts 17°
2026-05-04 14:56 46.90373 20.45770 34811 ft 428 kts 17°
2026-05-04 14:56 46.93190 20.47173 34913 ft 428 kts 17°
2026-05-04 14:56 46.96009 20.48582 35022 ft 428 kts 17°
2026-05-04 14:57 47.01652 20.51400 35117 ft 428 kts 17°
2026-05-04 14:57 47.07281 20.54226 35090 ft 428 kts 17°
2026-05-04 14:58 47.12920 20.57062 35083 ft 428 kts 17°
2026-05-04 14:58 47.18550 20.59908 35082 ft 428 kts 18°
2026-05-04 14:59 47.24184 20.62766 35078 ft 428 kts 17°
2026-05-04 15:00 47.32603 20.67020 35077 ft 428 kts 18°
2026-05-04 15:00 47.38225 20.69881 35077 ft 428 kts 17°
2026-05-04 15:01 47.46677 20.74162 35073 ft 428 kts 18°
2026-05-04 15:01 47.52316 20.77039 35074 ft 428 kts 17°
2026-05-04 15:02 47.57956 20.79905 35073 ft 428 kts 18°
2026-05-04 15:02 47.63601 20.82793 35077 ft 429 kts 18°
2026-05-04 15:03 47.69206 20.85672 35078 ft 429 kts 18°
2026-05-04 15:03 47.74848 20.88577 35076 ft 429 kts 18°
2026-05-04 15:04 47.80489 20.91489 35075 ft 429 kts 18°
2026-05-04 15:04 47.86117 20.94444 35077 ft 429 kts 18°
2026-05-04 15:05 47.91759 20.97385 35078 ft 429 kts 18°
2026-05-04 15:05 47.97411 21.00275 35078 ft 429 kts 18°
2026-05-04 15:06 48.03059 21.03198 35078 ft 429 kts 18°
2026-05-04 15:07 48.11502 21.07610 35071 ft 430 kts 18°
2026-05-04 15:07 48.17144 21.10567 35072 ft 430 kts 18°
2026-05-04 15:08 48.22789 21.13537 35077 ft 430 kts 18°
2026-05-04 15:08 48.28443 21.16515 35072 ft 431 kts 18°
2026-05-04 15:09 48.34097 21.19519 35071 ft 431 kts 18°
2026-05-04 15:09 48.39756 21.22516 35071 ft 431 kts 18°
2026-05-04 15:10 48.48250 21.27026 35068 ft 431 kts 18°
2026-05-04 15:10 48.53971 21.29481 35057 ft 430 kts
2026-05-04 15:11 48.56944 21.30014 35056 ft 430 kts
2026-05-04 15:11 48.62909 21.30917 35054 ft 430 kts
2026-05-04 15:12 48.68868 21.31862 35052 ft 431 kts
2026-05-04 15:12 48.74830 21.32829 35055 ft 431 kts
2026-05-04 15:13 48.80792 21.33809 35051 ft 431 kts
2026-05-04 15:13 48.86716 21.34791 35052 ft 431 kts
2026-05-04 15:14 48.92686 21.35783 35046 ft 431 kts
2026-05-04 15:14 48.98652 21.36771 35038 ft 431 kts
2026-05-04 15:15 49.04625 21.37765 35038 ft 431 kts
2026-05-04 15:15 49.10588 21.38761 35032 ft 431 kts
2026-05-04 15:16 49.19538 21.40259 35023 ft 431 kts
2026-05-04 15:17 49.27482 21.41589 35018 ft 431 kts
2026-05-04 15:17 49.36435 21.43098 35014 ft 431 kts
2026-05-04 15:18 49.43203 21.45572 35008 ft 435 kts 24°
2026-05-04 15:19 49.50309 21.51658 35004 ft 437 kts 28°
2026-05-04 15:19 49.58221 21.58552 34997 ft 438 kts 28°
2026-05-04 15:20 49.63539 21.63174 35010 ft 435 kts 28°
2026-05-04 15:20 49.68793 21.67760 34993 ft 433 kts 28°
2026-05-04 15:21 49.74048 21.72343 34991 ft 433 kts 28°
2026-05-04 15:22 49.81977 21.79286 34988 ft 437 kts 28°
2026-05-04 15:22 49.89885 21.86258 34986 ft 438 kts 28°
2026-05-04 15:23 49.95180 21.90928 34989 ft 438 kts 28°
2026-05-04 15:23 50.00483 21.95609 34993 ft 439 kts 28°
2026-05-04 15:24 50.11096 22.05000 34994 ft 438 kts 28°
2026-05-04 15:25 50.16388 22.09725 34997 ft 438 kts 28°
2026-05-04 15:26 50.24349 22.16831 34988 ft 439 kts 28°
2026-05-04 15:26 50.32296 22.23958 34979 ft 439 kts 28°
2026-05-04 15:27 50.40211 22.31096 34970 ft 440 kts 28°
2026-05-04 15:28 50.48177 22.38283 34967 ft 440 kts 28°
2026-05-04 15:29 50.56141 22.45509 34965 ft 440 kts 28°
2026-05-04 15:30 50.74682 22.62477 34963 ft 441 kts 28°
2026-05-04 15:31 50.82650 22.69789 34960 ft 442 kts 28°
2026-05-04 15:32 50.95956 22.82081 34958 ft 443 kts 28°
2026-05-04 15:34 51.09270 22.94498 34961 ft 445 kts 28°
2026-05-04 15:34 51.17271 23.01977 34960 ft 444 kts 29°
2026-05-04 15:35 51.25264 23.09496 34956 ft 444 kts 29°
2026-05-04 15:36 51.33223 23.16993 34950 ft 445 kts 29°
2026-05-04 15:36 51.38552 23.22030 34950 ft 445 kts 29°
2026-05-04 15:37 51.43886 23.27089 34948 ft 445 kts 29°
2026-05-04 15:37 51.49219 23.32170 34947 ft 446 kts 29°
2026-05-04 15:38 51.54555 23.37255 34948 ft 446 kts 29°
2026-05-04 15:38 51.59858 23.42331 34948 ft 446 kts 29°
2026-05-04 15:39 51.65188 23.47449 34944 ft 447 kts 29°
2026-05-04 15:40 51.73175 23.55257 34940 ft 448 kts 32°
2026-05-04 15:40 51.78315 23.60956 34940 ft 448 kts 33°
2026-05-04 15:41 51.83451 23.66687 34947 ft 448 kts 32°
2026-05-04 15:41 51.88597 23.72433 34942 ft 450 kts 33°
2026-05-04 15:42 51.93723 23.78175 34937 ft 450 kts 33°
2026-05-04 15:42 51.98876 23.83959 34937 ft 451 kts 33°
2026-05-04 15:43 52.04008 23.89815 34935 ft 451 kts 38°
2026-05-04 15:43 52.06158 23.93540 34932 ft 456 kts 51°
2026-05-04 15:43 52.08083 23.97649 34937 ft 457 kts 51°
2026-05-04 15:44 52.12032 24.05743 34936 ft 457 kts 48°
2026-05-04 15:44 52.16443 24.13165 34934 ft 456 kts 44°
2026-05-04 15:45 52.20730 24.20781 34932 ft 456 kts 47°
2026-05-04 15:45 52.24847 24.28599 34926 ft 458 kts 48°
2026-05-04 15:46 52.28983 24.36528 34924 ft 459 kts 48°
2026-05-04 15:46 52.33122 24.44477 34914 ft 458 kts 48°
2026-05-04 15:47 52.37251 24.52428 34911 ft 458 kts 48°
2026-05-04 15:47 52.41358 24.60364 34917 ft 454 kts 48°
2026-05-04 15:48 52.45453 24.68302 34909 ft 457 kts 48°
2026-05-04 15:48 52.51607 24.80248 34906 ft 457 kts 48°
2026-05-04 15:49 52.55678 24.88182 34904 ft 457 kts 48°
2026-05-04 15:49 52.59773 24.96168 34916 ft 457 kts 48°
2026-05-04 15:50 52.63874 25.04199 34904 ft 459 kts 49°
2026-05-04 15:50 52.67973 25.12265 34905 ft 459 kts 48°
2026-05-04 15:51 52.72068 25.20354 34910 ft 459 kts 49°
2026-05-04 15:51 52.76158 25.28462 34903 ft 459 kts 49°
2026-05-04 15:52 52.80247 25.36581 34903 ft 461 kts 49°
2026-05-04 15:52 52.84350 25.44752 34902 ft 462 kts 49°
2026-05-04 15:53 52.88444 25.52958 34898 ft 461 kts 49°
2026-05-04 15:53 52.92495 25.61101 34903 ft 461 kts 49°
2026-05-04 15:54 52.96570 25.69331 34906 ft 461 kts 49°
2026-05-04 15:54 53.00652 25.77589 34893 ft 463 kts 49°
2026-05-04 15:55 53.04731 25.85866 34900 ft 463 kts 49°
2026-05-04 15:55 53.08806 25.94157 34886 ft 463 kts 49°
2026-05-04 15:56 53.12884 26.02466 34885 ft 463 kts 49°
2026-05-04 15:56 53.16950 26.10792 34886 ft 463 kts 49°
2026-05-04 15:57 53.21013 26.19132 34883 ft 463 kts 50°
2026-05-04 15:57 53.25076 26.27507 34884 ft 463 kts 50°
2026-05-04 15:58 53.29125 26.35876 34893 ft 463 kts 50°
2026-05-04 15:58 53.33148 26.44211 34907 ft 463 kts 50°
2026-05-04 15:59 53.37189 26.52646 34889 ft 466 kts 50°
2026-05-04 15:59 53.41249 26.61119 34882 ft 466 kts 50°
2026-05-04 16:00 53.45308 26.69603 34885 ft 466 kts 50°
2026-05-04 16:00 53.49346 26.78093 34881 ft 463 kts 50°
2026-05-04 16:01 53.53347 26.86567 34886 ft 464 kts 50°
2026-05-04 16:01 53.57382 26.95048 34877 ft 464 kts 50°
2026-05-04 16:02 53.61391 27.03568 34876 ft 464 kts 50°
2026-05-04 16:03 53.67393 27.16403 34875 ft 464 kts 50°
2026-05-04 16:03 53.71369 27.24917 34880 ft 466 kts 50°
2026-05-04 16:04 53.75388 27.33547 34880 ft 467 kts 50°
2026-05-04 16:04 53.80718 27.45077 34871 ft 467 kts 51°
2026-05-04 16:05 53.84727 27.53753 34872 ft 467 kts 51°
2026-05-04 16:06 53.90719 27.66804 34875 ft 469 kts 51°
2026-05-04 16:07 53.98713 27.84331 34873 ft 469 kts 51°
2026-05-04 16:08 54.06660 28.01873 34875 ft 465 kts 51°
2026-05-04 16:09 54.16542 28.23832 34858 ft 468 kts 51°
2026-05-04 16:10 54.24432 28.41562 34863 ft 468 kts 51°
2026-05-04 16:11 54.32315 28.59335 34849 ft 471 kts 52°
2026-05-04 16:12 54.44129 28.86271 34855 ft 471 kts 52°
2026-05-04 16:13 54.51988 29.04315 34847 ft 472 kts 52°
2026-05-04 16:14 54.59840 29.22471 34846 ft 469 kts 52°
2026-05-04 16:16 54.69522 29.45073 34845 ft 470 kts 52°
2026-05-04 16:17 54.79195 29.67848 34851 ft 470 kts 52°
2026-05-04 16:18 54.86928 29.86218 34834 ft 471 kts 52°
2026-05-04 16:19 54.96554 30.09278 34822 ft 471 kts 53°
2026-05-04 16:20 55.06137 30.32458 34817 ft 471 kts 53°
2026-05-04 16:22 55.15629 30.55616 34820 ft 468 kts 52°
2026-05-04 16:23 55.26925 30.83597 34821 ft 469 kts 57°
2026-05-04 16:24 55.30899 31.05454 34833 ft 473 kts 75°
2026-05-04 16:25 55.32531 31.16669 34818 ft 474 kts 75°
2026-05-04 16:26 55.38216 31.55852 34819 ft 471 kts 75°
2026-05-04 16:28 55.42197 31.83881 34817 ft 473 kts 75°
2026-05-04 16:29 55.47668 32.23277 34812 ft 472 kts 75°
2026-05-04 16:31 55.51447 32.51099 34819 ft 463 kts 75°
2026-05-04 16:32 55.55934 32.84764 34821 ft 472 kts 76°
2026-05-04 16:33 55.58880 33.07329 34816 ft 469 kts 76°
2026-05-04 16:34 55.61038 33.24091 34814 ft 463 kts 76°
2026-05-04 16:35 55.65276 33.57616 34818 ft 470 kts 76°
2026-05-04 16:36 55.67386 33.74574 34816 ft 470 kts 76°
2026-05-04 16:37 55.69467 33.91528 34822 ft 467 kts 76°
2026-05-04 16:38 55.72155 34.13829 34654 ft 458 kts 77°
2026-05-04 16:39 55.74157 34.30682 33828 ft 469 kts 77°
2026-05-04 16:39 55.75490 34.42009 32792 ft 469 kts 77°
2026-05-04 16:40 55.76830 34.53360 31453 ft 471 kts 77°
2026-05-04 16:40 55.78160 34.64699 30116 ft 473 kts 77°
2026-05-04 16:41 55.79484 34.76193 28623 ft 474 kts 78°
2026-05-04 16:41 55.81432 34.93298 26774 ft 467 kts 78°
2026-05-04 16:42 55.83326 35.10189 24989 ft 460 kts 78°
2026-05-04 16:43 55.84561 35.21311 23813 ft 457 kts 79°
2026-05-04 16:43 55.85776 35.32354 22551 ft 452 kts 79°
2026-05-04 16:43 55.86372 35.37841 21923 ft 449 kts 79°
2026-05-04 16:44 55.88695 35.59311 19618 ft 436 kts 78°
2026-05-04 16:45 55.89815 35.69877 18504 ft 431 kts 78°
2026-05-04 16:46 55.91532 35.85459 16721 ft 422 kts 74°
2026-05-04 16:46 55.93200 35.95259 16005 ft 402 kts 72°
2026-05-04 16:47 55.94816 36.04710 15478 ft 397 kts 72°
2026-05-04 16:47 55.96418 36.14123 14980 ft 394 kts 72°
2026-05-04 16:48 55.98777 36.28121 14256 ft 390 kts 72°
2026-05-04 16:48 55.99545 36.32700 14016 ft 389 kts 72°
2026-05-04 16:49 56.01085 36.41925 13522 ft 383 kts 72°
2026-05-04 16:49 56.02597 36.51016 12987 ft 380 kts 72°
2026-05-04 16:50 56.04091 36.60054 12472 ft 378 kts 72°
2026-05-04 16:50 56.05568 36.69038 11827 ft 374 kts 72°
2026-05-04 16:51 56.07021 36.77910 10977 ft 366 kts 72°
2026-05-04 16:51 56.07721 36.82212 10757 ft 354 kts 72°
2026-05-04 16:51 56.08830 36.89037 10491 ft 333 kts 72°
2026-05-04 16:52 56.10276 36.97970 10021 ft 313 kts 72°
2026-05-04 16:52 56.10883 37.01721 9601 ft 313 kts 72°
2026-05-04 16:53 56.11887 37.07979 8940 ft 310 kts 73°
2026-05-04 16:53 56.13662 37.19074 7765 ft 306 kts 73°
2026-05-04 16:54 56.14243 37.22729 7504 ft 301 kts 73°
2026-05-04 16:55 56.16387 37.36282 6769 ft 272 kts 73°
2026-05-04 16:55 56.17371 37.42816 6208 ft 270 kts 73°
2026-05-04 16:56 56.18340 37.49304 5637 ft 268 kts 74°
2026-05-04 16:56 56.19313 37.58956 4841 ft 262 kts 108°
2026-05-04 16:57 56.18427 37.61706 4591 ft 254 kts 137°
2026-05-04 16:57 56.15901 37.66073 4118 ft 250 kts 140°
2026-05-04 16:58 56.12225 37.72584 3472 ft 246 kts 138°
2026-05-04 16:58 56.11023 37.74758 3395 ft 246 kts 138°
2026-05-04 16:59 56.08307 37.77603 3297 ft 214 kts 188°
2026-05-04 17:00 56.02957 37.74230 2920 ft 191 kts 202°
2026-05-04 17:00 56.01160 37.68874 2549 ft 177 kts 256°
2026-05-04 17:01 56.00603 37.64603 2469 ft 176 kts 254°
2026-05-04 17:01 56.00026 37.60701 2209 ft 152 kts 253°
2026-05-04 17:02 55.99481 37.57064 1997 ft 145 kts 253°
2026-05-04 17:02 55.98961 37.53598 1739 ft 144 kts 252°
2026-05-04 17:03 55.98701 37.51868 1557 ft 144 kts 252°
2026-05-04 17:03 55.98443 37.50153 1367 ft 143 kts 252°
2026-05-04 17:03 55.97922 37.46670 963 ft 146 kts 253°
2026-05-04 17:04 55.97396 37.43197 645 ft 129 kts 256°
2026-05-04 17:04 55.97138 37.41457 646 ft 16 kts 255°
2026-05-04 17:05 55.97206 37.41326 645 ft 15 kts 345°
2026-05-04 17:05 55.97493 37.41190 644 ft 13 kts 346°
2026-05-04 17:06 55.97499 37.41187 644 ft 2 kts 346°
2026-05-04 17:06 55.97546 37.41165 644 ft 11 kts 345°
2026-05-04 17:07 55.97609 37.41136 644 ft 0 kts 347°
2026-05-04 17:07 55.97640 37.41126 644 ft 8 kts 352°
2026-05-04 17:08 55.97683 37.41119 644 ft 5 kts 355°
2026-05-04 17:08 55.97713 37.41114 644 ft 0 kts 355°